OK1CMJ-5 Weather Reports


Display with metric or nautical units.
time (UTC)temp
F
wind
direction
speed
MPH
gust
MPH
rain 1hr
in
rain 24hr
in
rain mn
in
humidity
%
barometer
mb
20260503005832 42 1 0.0 2.0 0.00 0.00 0.00 42 1019.5
20260503004932 42 181 0.0 2.0 0.00 0.00 0.00 41 1019.5
20260503004032 42 1 0.0 2.0 0.00 0.00 0.00 41 1019.6
20260503002232 42 203 0.0 2.0 0.00 0.00 0.00 40 1019.7
20260503001332 42 202 0.0 1.0 0.00 0.00 0.00 39 1019.8
20260503000432 42 202 0.0 2.0 0.00 0.00 0.00 38 1020.1
20260502235532 42 202 0.0 2.0 0.00 0.00 0.00 38 1020.2
20260502234632 42 202 0.0 2.0 0.00 0.00 0.00 38 1020.1
20260502232832 42 202 0.0 1.0 0.00 0.00 0.00 36 1020.2
20260502231932 43 203 0.0 1.0 0.00 0.00 0.00 35 1020.2
20260502231032 43 203 0.0 2.0 0.00 0.00 0.00 35 1020.2
20260502230132 43 225 0.0 2.0 0.00 0.00 0.00 33 1020.2
20260502225232 43 225 0.0 2.0 0.00 0.00 0.00 33 1020.2
20260502224332 44 293 0.0 1.0 0.00 0.00 0.00 32 1020.2
20260502223432 44 318 0.0 1.0 0.00 0.00 0.00 32 1020.2
20260502222532 44 226 0.0 2.0 0.00 0.00 0.00 32 1020.3
20260502221632 44 187 0.0 2.0 0.00 0.00 0.00 33 1020.4
20260502220732 44 181 0.0 1.0 0.00 0.00 0.00 28 1020.4
20260502215832 45 181 0.0 2.0 0.00 0.00 0.00 27 1020.4
20260502214932 45 181 0.0 2.0 0.00 0.00 0.00 28 1020.5
20260502213132 46 191 0.0 2.0 0.00 0.00 0.00 24 1020.5
20260502212232 47 225 1.0 2.0 0.00 0.00 0.00 22 1020.3
20260502211332 47 225 0.0 2.0 0.00 0.00 0.00 20 1020.4
20260502205532 47 225 0.0 1.0 0.00 0.00 0.00 19 1020.5
20260502204632 47 274 0.0 2.0 0.00 0.00 0.00 18 1020.5
20260502203732 48 212 0.0 2.0 0.00 0.00 0.00 18 1020.5
20260502202832 47 216 0.0 2.0 0.00 0.00 0.00 18 1020.5
20260502201932 47 324 0.0 2.0 0.00 0.00 0.00 17 1020.3
20260502201032 48 1 0.0 1.0 0.00 0.00 0.00 18 1020.5
20260502200131 48 308 0.0 1.0 0.00 0.00 0.00 16 1020.4
20260502195232 49 225 0.0 1.0 0.00 0.00 0.00 16 1020.5
20260502194332 49 208 0.0 1.0 0.00 0.00 0.00 16 1020.7
20260502193432 50 226 0.0 2.0 0.00 0.00 0.00 16 1020.7
20260502192532 50 219 0.0 1.0 0.00 0.00 0.00 15 1020.6
20260502191631 50 0 0.0 0.0 0.00 0.00 0.00 13 1020.5
20260502190732 51 0 0.0 0.0 0.00 0.00 0.00 12 1020.4
20260502185831 51 0 0.0 0.0 0.00 0.00 0.00 11 1020.4
20260502184932 52 225 0.0 1.0 0.00 0.00 0.00 11 1020.5
20260502184032 53 0 0.0 0.0 0.00 0.00 0.00 10 1020.4
20260502183132 54 1 0.0 1.0 0.00 0.00 0.00 10 1020.5
20260502182231 56 234 0.0 1.0 0.00 0.00 0.00 10 1020.5
20260502181332 57 225 0.0 1.0 0.00 0.00 0.00 10 1020.4
20260502180431 60 254 0.0 1.0 0.00 0.00 0.00 10 1020.3
20260502170132 74 314 0.0 2.0 0.00 0.00 0.00 10 1020.7
20260502163431 80 302 0.0 2.0 0.00 0.00 0.00 10 1020.7
20260502162531 81 157 0.0 3.0 0.00 0.00 0.00 10 1020.8
20260502161631 82 123 0.0 4.0 0.00 0.00 0.00 10 1020.9
20260502160732 82 96 1.0 2.0 0.00 0.00 0.00 10 1021.0
20260502151332 81 49 2.0 4.0 0.00 0.00 0.00 10 1021.6
20260502150432 80 41 1.0 5.0 0.00 0.00 0.00 10 1021.7
20260502130731 78 309 0.0 3.0 0.00 0.00 0.00 10 1023.2
20260502123131 77 145 1.0 4.0 0.00 0.00 0.00 10 1023.7
20260502120432 76 89 2.0 6.0 0.00 0.00 0.00 10 1023.9
20260502115531 76 12 2.0 8.0 0.00 0.00 0.00 10 1023.9
20260502114631 75 115 2.0 8.0 0.00 0.00 0.00 10 1024.1
20260502112831 75 133 1.0 6.0 0.00 0.00 0.00 10 1024.3
20260502111931 76 151 1.0 5.0 0.00 0.00 0.00 10 1024.4
20260502111031 75 87 0.0 4.0 0.00 0.00 0.00 10 1024.5
20260502110131 75 96 1.0 5.0 0.00 0.00 0.00 10 1024.7
20260502105231 76 154 2.0 4.0 0.00 0.00 0.00 10 1024.8
20260502104331 74 126 1.0 6.0 0.00 0.00 0.00 10 1024.8
20260502103431 74 109 2.0 7.0 0.00 0.00 0.00 10 1025.0
20260502102531 75 170 0.0 5.0 0.00 0.00 0.00 10 1025.1
20260502101631 74 131 2.0 4.0 0.00 0.00 0.00 10 1025.1
20260502100731 74 1 1.0 6.0 0.00 0.00 0.00 10 1025.5
20260502091331 75 183 0.0 5.0 0.00 0.00 0.00 10 1025.7
20260502090431 75 216 2.0 6.0 0.00 0.00 0.00 10 1025.8
20260502065831 68 166 1.0 4.0 0.00 0.00 0.00 10 1026.4
20260502064931 67 264 1.0 4.0 0.00 0.00 0.00 11 1026.5
20260502064031 66 128 0.0 3.0 0.00 0.00 0.00 14 1026.2
20260502063131 66 103 1.0 3.0 0.00 0.00 0.00 11 1026.3
20260502062231 67 90 1.0 3.0 0.00 0.00 0.00 10 1026.3
20260502060431 68 51 1.0 2.0 0.00 0.00 0.00 14 1026.4
20260502055531 67 1 0.0 1.0 0.00 0.00 0.00 18 1026.5
20260502054631 66 0 0.0 0.0 0.00 0.00 0.00 14 1026.6
20260502053732 67 0 0.0 0.0 0.00 0.00 0.00 18 1026.4
20260502052831 65 0 0.0 0.0 0.00 0.00 0.00 24 1026.4
20260502051931 63 0 0.0 0.0 0.00 0.00 0.00 26 1026.5
20260502051031 60 0 0.0 0.0 0.00 0.00 0.00 32 1026.4
20260502050131 57 0 0.0 0.0 0.00 0.00 0.00 36 1026.4
20260502044331 54 0 0.0 0.0 0.00 0.00 0.00 57 1026.3
20260502043431 50 1 0.0 1.0 0.00 0.00 0.00 60 1026.3
20260502042531 47 105 0.0 2.0 0.00 0.00 0.00 63 1026.3
20260502041631 44 181 0.0 1.0 0.00 0.00 0.00 66 1026.2
20260502040731 38 0 0.0 0.0 0.00 0.00 0.00 61 1026.2
20260502034931 37 0 0.0 0.0 0.00 0.00 0.00 60 1026.2
20260502033131 37 314 0.0 1.0 0.00 0.00 0.00 59 1026.2
20260502031331 37 0 0.0 0.0 0.00 0.00 0.00 58 1026.4
20260502030431 37 0 0.0 0.0 0.00 0.00 0.00 58 1026.4
20260502024631 37 314 0.0 1.0 0.00 0.00 0.00 58 1026.4
20260502023731 37 314 0.0 2.0 0.00 0.00 0.00 57 1026.5
20260502022831 37 314 0.0 2.0 0.00 0.00 0.00 58 1026.6
20260502021931 37 0 0.0 0.0 0.00 0.00 0.00 56 1026.6
20260502020131 37 314 0.0 1.0 0.00 0.00 0.00 56 1026.7
20260502015231 37 314 0.0 1.0 0.00 0.00 0.00 55 1026.8
20260502014331 37 0 0.0 0.0 0.00 0.00 0.00 55 1026.9
20260502013434 38 0 0.0 0.0 0.00 0.00 0.00 55 1026.8
20260502012531 38 0 0.0 0.0 0.00 0.00 0.00 55 1026.9
20260502011631 38 314 0.0 1.0 0.00 0.00 0.00 55 1027.0
20260502010731 38 315 0.0 1.0 0.00 0.00 0.00 54 1027.1